Weather History for KSLO - November, 2011

Change the Weather History Date:

Friday, November 18, 2011

  Actual Average Record
Temperature  
Mean Temperature 44 °F -  
Max Temperature 55 °F 54 °F 74 °F (1958)
Min Temperature 33 °F 35 °F 11 °F (1959)
Degree Days  
Heating Degree Days 21    
Moisture  
Dew Point 18 °F    
Average Humidity 38    
Maximum Humidity 56    
Minimum Humidity 21    
Precipitation  
Precipitation 0.00 in - - ()
Sea Level Pressure  
Sea Level Pressure 30.22 in    
Wind  
Wind Speed 10 mph (SSE)    
Max Wind Speed 22 mph    
Max Gust Speed 30 mph    
Visibility 10 miles    
Events      
Averages and records for this station are not official NWS values.
T = Trace of Precipitation, MM = Missing Value Source: NWS Daily Summary

Daily Weather History Graph

Daily Weather History Graph

Search for Another Location

Airport or City:

Trip Planner

Search our weather history database for the weather conditions in past years. The results will help you decide how hot, cold, wet, or windy it might be!

Date:

Astronomy

Nov. 18, 2011 Rise Set
Actual Time 6:40 AM CST 4:40 PM CST
Civil Twilight 6:12 AM CST 5:09 PM CST
Nautical Twilight 5:40 AM CST 5:41 PM CST
Astronomical Twilight 5:08 AM CST 6:12 PM CST
Moon No Moon Rise 12:22 PM CST (11/18)
Length of Visible Light 10h 56m
Length of Day
9h 59m
Waning Gibbous, 49% of the Moon is Illuminated
Nov 18
Waning Gibbous
Nov 25
New
Dec 2
First Quarter
Dec 10
Full
Dec 17
Last Quarter

Hourly Weather History & Observations

Time (CST) Temp. Windchill Dew Point Humidity Pressure Visibility Wind Dir Wind Speed Gust Speed Precip Events Conditions
12:15 AM 35.6 °F 29.2 °F 14.0 °F 41% 30.29 in 10.0 mi South 8.1 mph - N/A   Clear
12:35 AM 35.6 °F 29.2 °F 12.2 °F 38% 30.29 in 10.0 mi SSE 8.1 mph - N/A   Clear
12:55 AM 35.6 °F 29.9 °F 14.0 °F 41% 30.29 in 10.0 mi South 6.9 mph - N/A   Clear
1:15 AM 35.6 °F 29.9 °F 14.0 °F 41% 30.30 in 10.0 mi SSE 6.9 mph - N/A   Clear
1:35 AM 35.6 °F 31.7 °F 14.0 °F 41% 30.30 in 10.0 mi SSE 4.6 mph - N/A   Clear
1:55 AM 33.8 °F 28.6 °F 15.8 °F 48% 30.30 in 10.0 mi SSE 5.8 mph - N/A   Clear
2:15 AM 35.6 °F 31.7 °F 15.8 °F 44% 30.30 in 10.0 mi SSE 4.6 mph - N/A   Clear
2:35 AM 35.6 °F 30.7 °F 15.8 °F 44% 30.30 in 10.0 mi SSE 5.8 mph - N/A   Clear
2:55 AM 35.6 °F 30.7 °F 17.6 °F 48% 30.31 in 10.0 mi SSE 5.8 mph - N/A   Clear
3:15 AM 33.8 °F 27.7 °F 17.6 °F 52% 30.30 in 10.0 mi SSE 6.9 mph - N/A   Clear
3:35 AM 33.8 °F 27.7 °F 17.6 °F 52% 30.30 in 10.0 mi SSE 6.9 mph - N/A   Clear
3:55 AM 33.8 °F 27.0 °F 17.6 °F 52% 30.30 in 10.0 mi South 8.1 mph - N/A   Clear
4:15 AM 33.8 °F 27.7 °F 17.6 °F 52% 30.30 in 10.0 mi SSE 6.9 mph - N/A   Clear
4:35 AM 33.8 °F 27.7 °F 19.4 °F 56% 30.30 in 10.0 mi South 6.9 mph - N/A   Clear
4:55 AM 33.8 °F 27.7 °F 19.4 °F 56% 30.30 in 10.0 mi SSE 6.9 mph - N/A   Clear
5:35 AM 33.8 °F 28.6 °F 19.4 °F 56% 30.30 in 10.0 mi SSE 5.8 mph - N/A   Clear
5:41 AM 35.6 °F 30.7 °F 19.4 °F 52% 30.30 in 10.0 mi SSE 5.8 mph - N/A   Clear
5:55 AM 33.8 °F 27.0 °F 19.4 °F 56% 30.30 in 10.0 mi SSE 8.1 mph - N/A   Clear
6:15 AM 35.6 °F 28.6 °F 19.4 °F 52% 30.29 in 10.0 mi SSE 9.2 mph - N/A   Clear
6:35 AM 35.6 °F 29.2 °F 19.4 °F 52% 30.29 in 10.0 mi SSE 8.1 mph - N/A   Clear
6:55 AM 35.6 °F 29.2 °F 19.4 °F 52% 30.29 in 10.0 mi SSE 8.1 mph - N/A   Clear
7:15 AM 35.6 °F 28.6 °F 19.4 °F 52% 30.29 in 10.0 mi SSE 9.2 mph - N/A   Clear
7:35 AM 35.6 °F 28.0 °F 19.4 °F 52% 30.29 in 10.0 mi SSE 10.4 mph 17.3 mph N/A   Clear
7:55 AM 37.4 °F 28.9 °F 19.4 °F 48% 30.28 in 10.0 mi SSE 13.8 mph 17.3 mph N/A   Clear
8:15 AM 41.0 °F 33.5 °F 21.2 °F 45% 30.28 in 10.0 mi SSE 13.8 mph - N/A   Clear
8:35 AM 41.0 °F 33.9 °F 21.2 °F 45% 30.27 in 10.0 mi South 12.7 mph - N/A   Clear
8:55 AM 42.8 °F 35.4 °F 21.2 °F 42% 30.27 in 10.0 mi South 15.0 mph 20.7 mph N/A   Clear
9:15 AM 42.8 °F 35.4 °F 19.4 °F 39% 30.26 in 10.0 mi SSE 15.0 mph 20.7 mph N/A   Clear
9:35 AM 44.6 °F 37.4 °F 19.4 °F 37% 30.26 in 10.0 mi South 16.1 mph 23.0 mph N/A   Clear
9:55 AM 46.4 °F 39.8 °F 19.4 °F 34% 30.25 in 10.0 mi South 16.1 mph 20.7 mph N/A   Clear
10:15 AM 46.4 °F 39.8 °F 19.4 °F 34% 30.25 in 10.0 mi South 16.1 mph 25.3 mph N/A   Clear
10:35 AM 46.4 °F 39.5 °F 19.4 °F 34% 30.24 in 10.0 mi South 17.3 mph 25.3 mph N/A   Clear
10:55 AM 50.0 °F - 19.4 °F 30% 30.23 in 10.0 mi South 16.1 mph 23.0 mph N/A   Clear
11:15 AM 50.0 °F - 17.6 °F 28% 30.21 in 10.0 mi South 20.7 mph 26.5 mph N/A   Clear
11:35 AM 51.8 °F - 17.6 °F 26% 30.21 in 10.0 mi South 20.7 mph 27.6 mph N/A   Clear
11:55 AM 51.8 °F - 17.6 °F 26% 30.19 in 10.0 mi South 19.6 mph 26.5 mph N/A   Scattered Clouds
12:15 PM 53.6 °F - 17.6 °F 24% 30.18 in 10.0 mi South 16.1 mph 25.3 mph N/A   Clear
12:35 PM 53.6 °F - 15.8 °F 22% 30.16 in 10.0 mi South 19.6 mph 25.3 mph N/A   Clear
12:55 PM 53.6 °F - 15.8 °F 22% 30.15 in 10.0 mi South 13.8 mph 25.3 mph N/A   Clear
1:15 PM 53.6 °F - 17.6 °F 24% 30.13 in 10.0 mi South 17.3 mph 27.6 mph N/A   Clear
1:35 PM 53.6 °F - 15.8 °F 22% 30.12 in 10.0 mi South 20.7 mph 27.6 mph N/A   Clear
1:55 PM 53.6 °F - 14.0 °F 21% 30.11 in 10.0 mi South 21.9 mph 27.6 mph N/A   Clear
2:15 PM 55.4 °F - 15.8 °F 21% 30.10 in 10.0 mi South 17.3 mph 27.6 mph N/A   Scattered Clouds
2:35 PM 53.6 °F - 15.8 °F 22% 30.09 in 10.0 mi South 20.7 mph 29.9 mph N/A   Scattered Clouds
2:55 PM 53.6 °F - 17.6 °F 24% 30.08 in 10.0 mi South 15.0 mph 24.2 mph N/A   Clear
3:15 PM 53.6 °F - 17.6 °F 24% 30.08 in - South 12.7 mph - N/A   Unknown
3:35 PM 53.6 °F - 17.6 °F 24% 30.07 in 10.0 mi South 15.0 mph 25.3 mph N/A   Clear
3:55 PM 51.8 °F - 17.6 °F 26% 30.07 in 10.0 mi South 15.0 mph 20.7 mph N/A   Clear
4:15 PM 51.8 °F - 17.6 °F 26% 30.07 in 10.0 mi SSE 11.5 mph 23.0 mph N/A   Clear
4:35 PM 51.8 °F - 19.4 °F 28% 30.06 in 10.0 mi South 12.7 mph 18.4 mph N/A   Clear
4:55 PM 51.8 °F - 17.6 °F 26% 30.05 in 10.0 mi South 11.5 mph 17.3 mph N/A   Clear
5:15 PM 50.0 °F - 17.6 °F 28% 30.05 in 10.0 mi SSE 10.4 mph 17.3 mph N/A   Clear
5:35 PM 50.0 °F - 17.6 °F 28% 30.05 in 10.0 mi SSE 11.5 mph 17.3 mph N/A   Clear
5:55 PM 50.0 °F - 17.6 °F 28% 30.05 in 10.0 mi SSE 11.5 mph - N/A   Clear
6:15 PM 50.0 °F - 19.4 °F 30% 30.04 in 10.0 mi South 13.8 mph 19.6 mph N/A   Clear
6:35 PM 50.0 °F - 19.4 °F 30% 30.04 in 10.0 mi South 15.0 mph 26.5 mph N/A   Clear
6:55 PM 50.0 °F - 19.4 °F 30% 30.03 in 10.0 mi South 13.8 mph 21.9 mph N/A   Clear
7:15 PM 48.2 °F - 19.4 °F 32% 30.03 in 10.0 mi South 15.0 mph 19.6 mph N/A   Clear
7:35 PM 48.2 °F - 17.6 °F 30% 30.03 in 10.0 mi South 18.4 mph 23.0 mph N/A   Clear
7:55 PM 48.2 °F - 17.6 °F 30% 30.03 in 10.0 mi South 15.0 mph 21.9 mph N/A   Clear
8:15 PM 48.2 °F - 19.4 °F 32% 30.03 in 10.0 mi South 15.0 mph 20.7 mph N/A   Clear
8:35 PM 48.2 °F - 19.4 °F 32% 30.03 in 10.0 mi South 13.8 mph 19.6 mph N/A   Clear
8:55 PM 46.4 °F 40.7 °F 19.4 °F 34% 30.03 in 10.0 mi South 12.7 mph 21.9 mph N/A   Clear
9:15 PM 48.2 °F - 19.4 °F 32% 30.03 in 10.0 mi South 16.1 mph 20.7 mph N/A   Clear
9:35 PM 48.2 °F - 19.4 °F 32% 30.03 in 10.0 mi South 12.7 mph 21.9 mph N/A   Clear
9:55 PM 48.2 °F - 21.2 °F 34% 30.03 in 10.0 mi South 13.8 mph 20.7 mph N/A   Clear
10:15 PM 46.4 °F 40.4 °F 21.2 °F 37% 30.03 in 10.0 mi South 13.8 mph 18.4 mph N/A   Scattered Clouds
10:35 PM 48.2 °F - 23.0 °F 37% 30.03 in 10.0 mi South 15.0 mph 23.0 mph N/A   Scattered Clouds
10:55 PM 48.2 °F - 23.0 °F 37% 30.02 in 10.0 mi South 15.0 mph 19.6 mph N/A   Scattered Clouds
11:15 PM 50.0 °F - 23.0 °F 35% 30.01 in 10.0 mi South 18.4 mph 26.5 mph N/A   Mostly Cloudy
11:35 PM 50.0 °F - 24.8 °F 37% 30.02 in 10.0 mi South 19.6 mph - N/A   Overcast
11:55 PM 50.0 °F - 26.6 °F 40% 30.02 in 10.0 mi South 16.1 mph 26.5 mph N/A   Scattered Clouds